{"data":{"norad_id":51880,"epoch":"2026-09-20T03:55:21.732672Z","epoch_age_seconds":81259,"freshness":"FRESH","line1":"1 51880U 22022AE  26263.16344598  .00015490  00000+0  61913-3 0  9990","line2":"2 51880  53.1587 208.2990 0004135  57.6368 302.5030 15.25307856252577","mean_motion":15.25307856,"eccentricity":0.0004135,"inclination_deg":53.1587,"raan_deg":208.299,"arg_perigee_deg":57.6368,"mean_anomaly_deg":302.503,"bstar":0.00061913,"rev_number":25257,"period_min":94.407171269431,"perigee_km":487.02123966491,"apogee_km":492.70107414067,"semimajor_km":6867.9981569028,"source":"CELESTRAK","updated_at":"2026-09-20T09:00:39.950442Z"}}